Location: Zapote
(9.9191°N, 84.0597°W)
Time: 12:30:28
(UTC-06:00)

ZACube-1 - Visible Passes

Search period start: 16 April 2021 00:00
Search period end: 26 April 2021 00:00
Orbit: 583 x 666 km, 97.6° (Epoch: 15 April)

Date Brightness Start Highest point End Pass type
(mag) Time Alt. Az. Time Alt. Az. Time Alt. Az.
16 Apr ? 03:49:26 10° NNE 03:53:42 40° E 03:57:59 10° S visible
17 Apr ? 04:07:50 10° NNE 04:12:22 75° E 04:16:56 10° S visible
18 Apr ? 04:26:34 10° N 04:31:01 59° WNW 04:35:31 10° SSW visible
19 Apr ? 03:11:56 10° ENE 03:13:38 12° E 03:15:21 10° ESE visible
19 Apr ? 04:45:37 10° NNW 04:49:40 32° WNW 04:53:45 10° SW visible
20 Apr ? 03:28:51 10° NE 03:32:20 22° E 03:35:49 10° SSE visible
21 Apr ? 03:46:47 10° NNE 03:51:01 38° E 03:55:15 10° SSE visible
22 Apr ? 04:05:09 10° NNE 04:09:41 71° ESE 04:14:14 10° S visible
23 Apr ? 04:23:50 10° N 04:28:20 63° WNW 04:32:51 10° SSW visible
24 Apr ? 03:09:37 10° E 03:10:56 11° E 03:12:15 10° ESE visible
24 Apr ? 04:42:51 10° NNW 04:46:59 34° WNW 04:51:06 10° SW visible
25 Apr ? 03:26:16 10° NE 03:29:38 20° E 03:32:58 10° SSE visible
